�N����,����,�~����,�C��,���x,�C��,����,���ϕ���,�ő�u�ԕ���,�ő厞����,���˗�,�I�_���x,�n�����x,�ő啗���N��,DTYPE
"18/09/07","00:10",0.4,23.3,91.7,1003.6,347.7,0.7,1.4,359.6,0.00,21.9,25.3,"00:00:16",1
"18/09/07","00:20",0.8,23.1,92.0,1003.8,233.2,0.3,1.2,218.5,0.00,21.8,25.3,"00:13:04",1
"18/09/07","00:30",0.6,23.1,92.5,1003.1,279.6,0.5,0.9,223.9,0.00,21.9,25.0,"00:21:52",1
"18/09/07","00:40",1.0,23.1,92.9,1003.8,277.2,0.5,1.2,310.5,0.00,21.9,25.1,"00:34:32",1
"18/09/07","00:50",0.6,23.1,93.3,1003.4,352.2,0.2,1.1,323.7,0.00,22.0,25.0,"00:46:04",1
"18/09/07","01:00",1.0,22.9,93.1,1003.4,129.5,0.6,1.9,161.6,0.00,21.8,25.1,"00:57:44",1
"18/09/07","01:10",0.2,22.8,93.2,1003.1,139.2,1.1,3.1,207.2,0.00,21.7,24.9,"01:07:12",1
"18/09/07","01:20",0.0,22.9,93.8,1002.9,138.5,0.3,1.8,136.3,0.00,21.9,25.1,"01:10:40",1
"18/09/07","01:30",0.0,22.9,93.8,1003.1,77.4,0.2,1.1,135.9,0.00,21.9,24.8,"01:25:52",1
"18/09/07","01:40",0.2,22.9,93.8,1003.1,84.5,0.3,1.0,43.8,0.00,21.9,24.9,"01:32:40",1
"18/09/07","01:50",0.0,22.9,94.1,1002.9,198.4,0.3,1.4,194.9,0.00,21.9,24.9,"01:41:36",1
"18/09/07","02:00",0.0,22.9,94.3,1002.6,129.9,0.3,1.0,110.7,0.00,22.0,25.0,"01:53:20",1
"18/09/07","02:10",0.0,22.9,94.3,1002.6,88.9,0.5,1.3,206.0,0.00,22.0,24.8,"02:01:28",1
"18/09/07","02:20",0.0,22.9,94.4,1002.9,21.0,0.2,0.9,18.8,0.00,22.0,25.0,"02:14:44",1
"18/09/07","02:30",0.0,22.9,94.5,1002.9,3.2,0.5,1.3,7.0,0.00,22.0,24.8,"02:26:42",1
"18/09/07","02:40",0.0,22.9,94.6,1002.6,342.5,0.5,1.1,25.0,0.00,22.0,24.9,"02:30:42",1
"18/09/07","02:50",0.0,22.9,94.8,1002.9,313.4,0.6,1.0,348.9,0.00,22.1,24.7,"02:43:04",1
"18/09/07","03:00",0.0,22.8,94.6,1002.6,287.3,0.6,1.3,258.5,0.00,21.9,25.1,"02:54:56",1
"18/09/07","03:10",0.0,22.8,94.9,1002.4,282.8,0.6,1.0,342.6,0.00,22.0,24.8,"03:09:12",1
"18/09/07","03:20",0.0,22.8,94.9,1003.1,317.5,0.6,1.2,336.5,0.00,22.0,24.9,"03:16:40",1
"18/09/07","03:30",0.0,22.8,94.9,1002.6,290.4,0.3,0.8,263.7,0.00,22.0,24.8,"03:20:32",1
"18/09/07","03:40",0.0,22.8,95.1,1002.4,309.6,0.5,1.0,346.4,0.00,22.0,24.8,"03:32:40",1
"18/09/07","03:50",0.0,22.7,95.0,1002.9,337.5,0.7,1.6,355.8,0.00,21.9,24.8,"03:41:52",1
"18/09/07","04:00",0.0,22.7,95.1,1002.4,352.3,0.5,1.1,334.1,0.00,21.9,25.0,"03:51:20",1
"18/09/07","04:10",0.0,22.7,95.3,1002.6,288.9,0.6,1.1,333.6,0.00,21.9,24.8,"04:00:16",1
"18/09/07","04:20",0.0,22.7,95.2,1002.4,322.3,0.7,1.7,331.5,0.00,21.9,24.9,"04:16:24",1
"18/09/07","04:30",0.0,22.7,95.4,1002.6,291.7,0.3,1.0,330.4,0.00,22.0,24.7,"04:22:00",1
"18/09/07","04:40",0.0,22.7,95.4,1002.4,344.8,0.6,1.0,350.6,0.00,22.0,24.8,"04:36:00",1
"18/09/07","04:50",0.0,22.6,95.4,1002.6,333.2,0.6,1.1,330.2,0.00,21.9,24.8,"04:41:36",1
"18/09/07","05:00",0.6,22.6,95.5,1002.2,327.5,1.1,1.6,336.3,0.00,21.9,24.6,"04:56:00",1
"18/09/07","05:10",1.8,22.5,95.6,1002.4,300.3,0.7,2.5,198.7,0.00,21.8,24.7,"05:09:12",1
"18/09/07","05:20",0.2,22.5,95.7,1002.2,245.4,0.7,2.5,198.6,0.00,21.8,24.5,"05:10:08",1
"18/09/07","05:30",0.2,22.5,95.7,1002.2,268.1,0.3,1.0,319.3,0.00,21.8,24.7,"05:29:44",1
"18/09/07","05:40",0.2,22.6,95.7,1002.2,261.8,0.8,1.4,226.3,0.00,21.9,24.7,"05:38:00",1
"18/09/07","05:50",0.0,22.6,95.8,1002.2,231.6,0.7,2.2,231.0,0.00,21.9,24.5,"05:43:20",1
"18/09/07","06:00",0.0,22.7,95.8,1002.6,281.3,0.5,1.0,315.6,0.00,22.0,24.6,"05:55:28",1
"18/09/07","06:10",0.0,22.8,95.9,1002.4,314.6,0.6,1.1,219.7,0.00,22.2,24.4,"06:09:36",1
"18/09/07","06:20",0.0,22.8,95.8,1002.4,298.9,0.5,0.9,232.5,0.00,22.1,24.6,"06:10:08",1
"18/09/07","06:30",0.0,22.8,95.8,1002.4,301.0,0.6,1.4,230.7,0.00,22.1,24.6,"06:23:12",1
"18/09/07","06:40",0.0,22.8,95.8,1002.4,258.9,0.5,1.0,198.9,0.00,22.1,24.5,"06:34:16",1
"18/09/07","06:50",0.0,22.9,96.0,1002.9,304.9,0.3,1.0,238.1,0.00,22.3,24.7,"06:45:04",1
"18/09/07","07:00",0.0,22.9,95.9,1002.6,172.5,0.2,1.0,337.8,0.00,22.3,24.7,"06:58:24",1
"18/09/07","07:10",0.2,23.0,95.9,1002.6,336.6,0.3,1.3,350.5,0.00,22.4,24.6,"07:04:24",1
"18/09/07","07:20",0.0,23.1,95.9,1002.2,94.1,0.2,0.9,11.7,0.00,22.4,24.5,"07:15:20",1
"18/09/07","07:30",0.0,23.1,95.9,1002.4,63.2,0.2,0.6,339.7,0.00,22.4,24.4,"07:22:00",1
"18/09/07","07:40",0.2,23.0,95.8,1002.6,150.6,0.3,1.0,190.8,0.00,22.3,24.6,"07:38:48",1
"18/09/07","07:50",0.0,22.9,95.8,1002.6,173.3,0.6,1.1,146.9,0.01,22.2,24.6,"07:44:56",1
"18/09/07","08:00",0.0,23.0,96.1,1002.4,180.2,0.3,0.8,72.1,0.00,22.4,24.6,"07:53:44",1
"18/09/07","08:10",0.0,23.1,95.8,1002.4,355.2,0.6,1.4,344.4,0.01,22.4,24.8,"08:05:36",1
"18/09/07","08:20",0.0,23.1,96.1,1002.9,336.4,0.5,1.3,340.2,0.01,22.5,24.6,"08:18:24",1
"18/09/07","08:30",0.2,23.1,95.8,1002.9,279.5,0.6,1.2,232.7,0.00,22.4,24.6,"08:20:56",1
"18/09/07","08:40",0.2,23.1,95.8,1002.9,307.0,0.3,1.0,335.8,0.00,22.4,24.9,"08:37:04",1
"18/09/07","08:50",0.4,23.4,96.0,1002.9,0.1,0.2,1.0,326.5,0.02,22.8,24.8,"08:40:02",1
"18/09/07","09:00",0.0,23.4,96.0,1002.9,359.4,0.8,1.6,351.3,0.04,22.8,24.9,"08:51:52",1
"18/09/07","09:10",0.0,23.6,95.7,1003.1,141.2,0.5,1.1,116.4,0.03,22.9,24.7,"09:01:12",1
"18/09/07","09:20",0.2,23.6,95.5,1002.9,347.7,0.3,1.3,354.3,0.02,22.9,24.7,"09:15:12",1
"18/09/07","09:30",0.4,23.7,95.8,1002.9,242.4,0.3,0.9,223.2,0.03,23.0,24.6,"09:28:48",1
"18/09/07","09:40",0.0,24.0,95.3,1003.1,247.4,0.5,1.1,235.9,0.11,23.2,24.8,"09:30:32",1
"18/09/07","09:50",0.2,24.4,95.1,1002.6,313.0,0.3,1.2,114.4,0.15,23.6,24.8,"09:47:52",1
"18/09/07","10:00",0.0,24.4,94.8,1002.9,28.1,0.3,1.0,68.7,0.07,23.6,24.9,"09:50:08",1
"18/09/07","10:10",0.0,24.5,94.7,1003.1,273.5,0.3,0.9,314.2,0.06,23.6,25.1,"10:02:48",1
"18/09/07","10:20",0.0,24.5,94.3,1003.1,183.9,0.5,1.0,219.1,0.06,23.6,25.2,"10:15:52",1
"18/09/07","10:30",0.0,24.4,94.7,1003.1,188.5,0.7,1.6,211.9,0.04,23.5,25.1,"10:22:48",1
"18/09/07","10:40",0.4,24.5,94.8,1003.4,161.5,0.5,1.3,201.0,0.05,23.7,25.2,"10:31:04",1
"18/09/07","10:50",0.0,24.9,94.1,1003.1,43.1,0.2,0.9,52.8,0.09,23.9,25.1,"10:40:02",1
"18/09/07","11:00",0.0,25.0,94.6,1003.1,21.3,0.6,1.4,346.4,0.06,24.1,25.2,"10:53:12",1
"18/09/07","11:10",0.2,25.1,93.9,1002.9,342.2,0.3,1.0,350.8,0.08,24.1,25.4,"11:05:04",1
"18/09/07","11:20",0.0,25.2,93.5,1002.9,45.6,0.5,1.2,39.2,0.08,24.1,25.4,"11:15:44",1
"18/09/07","11:30",0.0,25.1,93.5,1002.6,71.6,0.5,1.2,11.9,0.08,24.0,25.3,"11:29:28",1
"18/09/07","11:40",0.0,25.3,93.5,1002.6,86.2,0.2,0.6,153.7,0.06,24.2,25.4,"11:36:16",1
"18/09/07","11:50",0.0,25.5,92.7,1002.6,308.8,0.2,0.9,115.3,0.10,24.3,25.3,"11:47:52",1
"18/09/07","12:00",0.0,25.8,92.7,1002.2,37.3,0.3,1.6,32.1,0.13,24.6,25.5,"11:57:36",1
"18/09/07","12:10",0.0,26.4,91.7,1002.2,112.1,0.3,1.1,89.1,0.20,25.0,25.7,"12:00:24",1
"18/09/07","12:20",0.0,26.4,89.2,1001.9,152.9,0.6,1.6,64.3,0.19,24.5,25.7,"12:13:20",1
"18/09/07","12:30",0.0,26.5,89.4,1001.9,147.5,0.5,1.3,130.3,0.11,24.7,25.8,"12:22:08",1
"18/09/07","12:40",0.0,26.8,90.2,1001.9,57.4,0.6,1.2,17.0,0.19,25.1,25.7,"12:35:04",1
"18/09/07","12:50",0.0,26.8,88.9,1002.2,54.3,0.6,1.3,352.0,0.16,24.9,25.9,"12:43:28",1
"18/09/07","13:00",0.0,27.6,86.9,1001.7,270.6,0.7,1.8,148.7,0.24,25.3,26.2,"12:50:02",1
"18/09/07","13:10",0.0,27.4,86.4,1001.5,157.2,0.8,2.4,125.5,0.15,25.0,26.0,"13:00:08",1
"18/09/07","13:20",0.0,27.6,84.9,1001.2,172.7,0.7,1.7,166.0,0.19,24.9,26.2,"13:19:36",1
"18/09/07","13:30",0.0,28.0,83.6,1000.8,168.3,0.7,1.7,112.3,0.24,25.0,26.4,"13:23:20",1
"18/09/07","13:40",0.0,27.9,82.5,1001.0,185.8,0.8,2.1,224.1,0.15,24.7,26.3,"13:39:12",1
"18/09/07","13:50",0.0,28.0,81.8,1001.0,208.0,0.7,1.8,219.9,0.05,24.6,26.4,"13:43:04",1
"18/09/07","14:00",0.2,27.7,83.7,1001.0,241.4,0.6,1.8,229.9,0.08,24.7,26.6,"13:54:32",1
"18/09/07","14:10",0.0,28.0,82.5,1000.3,226.7,0.6,1.9,182.1,0.10,24.8,26.6,"14:02:48",1
"18/09/07","14:20",0.0,28.2,80.3,1000.5,293.0,1.0,2.9,245.6,0.13,24.5,26.7,"14:19:52",1
"18/09/07","14:30",0.0,28.2,81.4,1000.5,272.1,1.6,3.4,231.3,0.14,24.7,26.7,"14:26:48",1
"18/09/07","14:40",0.0,28.0,80.3,1000.5,297.0,1.1,2.5,329.3,0.10,24.3,26.7,"14:38:40",1
"18/09/07","14:50",0.0,28.3,79.2,1001.2,272.1,1.6,5.6,211.4,0.16,24.4,26.7,"14:44:48",1
"18/09/07","15:00",0.0,28.2,78.4,1001.0,261.8,1.3,3.6,218.6,0.12,24.1,26.7,"14:59:36",1
"18/09/07","15:10",0.0,28.4,77.0,1001.0,272.1,1.8,4.3,329.4,0.06,24.0,26.5,"15:05:40",1
"18/09/07","15:20",0.0,28.0,78.9,1001.2,277.3,1.3,3.5,343.7,0.07,24.0,26.7,"15:19:12",1
"18/09/07","15:30",0.0,28.2,78.1,1000.8,280.1,1.5,3.2,211.0,0.10,24.1,26.6,"15:27:52",1
"18/09/07","15:40",0.0,28.3,76.0,1001.2,276.6,1.2,4.1,318.8,0.05,23.7,26.7,"15:39:36",1
"18/09/07","15:50",0.0,28.2,76.9,1001.0,277.5,1.6,3.7,313.3,0.06,23.8,26.7,"15:40:08",1
"18/09/07","16:00",0.0,28.0,76.7,1001.2,289.8,1.2,4.4,344.8,0.05,23.6,26.3,"15:50:48",1
"18/09/07","16:10",0.0,28.0,75.6,1001.2,279.5,1.2,2.7,307.2,0.04,23.3,26.6,"16:04:40",1
"18/09/07","16:20",0.0,28.0,75.2,1001.7,247.3,1.7,4.5,198.8,0.03,23.2,26.6,"16:14:40",1
"18/09/07","16:30",0.0,28.1,75.7,1001.7,288.1,1.1,2.8,216.1,0.03,23.4,26.4,"16:21:20",1
"18/09/07","16:40",0.0,27.8,76.1,1001.5,250.2,1.2,3.4,213.3,0.01,23.2,26.6,"16:32:00",1
"18/09/07","16:50",0.0,27.8,76.7,1001.9,329.2,1.3,2.6,340.8,0.01,23.4,26.6,"16:48:16",1
"18/09/07","17:00",0.0,27.6,77.6,1001.7,255.5,1.3,2.5,261.9,0.01,23.4,26.4,"16:50:40",1
"18/09/07","17:10",0.0,27.5,77.7,1001.5,318.1,1.1,4.8,322.7,0.01,23.3,26.4,"17:09:36",1
"18/09/07","17:20",0.0,27.5,78.6,1001.2,331.9,1.7,3.7,349.9,0.00,23.5,26.4,"17:15:12",1
"18/09/07","17:30",0.0,27.0,81.3,1001.2,353.3,1.0,2.0,355.4,0.00,23.6,26.3,"17:25:20",1
"18/09/07","17:40",0.0,26.8,82.3,1001.0,336.5,1.2,3.1,348.9,0.00,23.6,26.3,"17:39:28",1
"18/09/07","17:50",0.0,26.6,83.0,1001.2,298.6,0.8,2.2,302.4,0.00,23.5,26.4,"17:40:48",1
"18/09/07","18:00",0.0,26.6,84.3,1001.2,329.4,0.7,1.4,336.1,0.00,23.8,26.3,"17:55:28",1
"18/09/07","18:10",0.0,26.3,85.5,1001.2,306.3,1.1,1.8,324.2,0.00,23.7,26.3,"18:08:56",1
"18/09/07","18:20",0.0,26.1,86.4,1001.7,167.4,0.6,2.1,347.2,0.00,23.7,26.4,"18:10:48",1
"18/09/07","18:30",0.0,25.9,87.1,1001.9,295.9,0.8,1.6,344.5,0.00,23.6,26.0,"18:24:24",1
"18/09/07","18:40",0.0,25.9,87.5,1001.7,320.6,1.0,1.6,322.4,0.00,23.7,26.4,"18:39:04",1
"18/09/07","18:50",0.0,25.7,88.1,1001.7,300.9,1.0,1.9,330.1,0.00,23.6,26.2,"18:45:36",1
"18/09/07","19:00",0.0,25.5,88.6,1001.9,268.9,0.6,1.2,232.5,0.00,23.5,26.1,"18:58:56",1
"18/09/07","19:10",0.0,25.5,89.0,1002.2,284.8,0.6,1.3,316.9,0.00,23.6,26.2,"19:01:44",1
"18/09/07","19:20",0.0,25.4,89.4,1002.2,234.2,0.8,2.0,341.0,0.00,23.6,26.1,"19:10:02",1
"18/09/07","19:30",0.0,25.4,89.2,1002.4,338.4,1.6,2.9,340.4,0.00,23.5,25.9,"19:22:40",1
"18/09/07","19:40",0.0,25.7,88.8,1002.6,335.0,1.3,2.4,333.0,0.00,23.8,25.7,"19:37:36",1
"18/09/07","19:50",0.0,25.6,88.6,1002.4,336.7,1.3,2.0,348.6,0.00,23.6,26.0,"19:45:04",1
"18/09/07","20:00",0.0,25.8,87.6,1002.9,302.9,1.2,4.2,329.9,0.00,23.6,26.1,"19:54:00",1
"18/09/07","20:10",0.0,26.1,85.6,1002.6,353.4,0.8,1.9,359.5,0.00,23.5,26.0,"20:07:12",1
"18/09/07","20:20",0.0,26.4,84.4,1002.6,345.2,1.0,3.2,37.2,0.00,23.6,25.9,"20:15:04",1
"18/09/07","20:30",0.0,26.7,82.3,1003.1,330.0,0.8,2.1,351.5,0.00,23.5,26.0,"20:22:24",1
"18/09/07","20:40",0.0,27.0,80.9,1003.4,61.4,1.1,2.4,209.3,0.00,23.5,25.7,"20:34:24",1
"18/09/07","20:50",0.0,26.9,80.6,1003.1,86.4,0.3,0.8,61.9,0.00,23.3,25.8,"20:41:12",1
"18/09/07","21:00",0.0,27.0,80.2,1003.4,140.0,0.8,5.0,124.4,0.00,23.3,25.8,"20:50:48",1
"18/09/07","21:10",0.0,26.7,81.7,1003.1,180.8,0.8,1.9,149.6,0.00,23.3,25.7,"21:07:28",1
"18/09/07","21:20",0.0,26.7,82.0,1003.6,167.6,1.0,1.9,131.2,0.00,23.4,25.7,"21:19:52",1
"18/09/07","21:30",0.0,26.6,82.0,1003.8,173.4,1.3,3.2,172.1,0.00,23.3,25.7,"21:27:36",1
"18/09/07","21:40",0.0,26.3,84.1,1003.4,176.8,1.5,3.1,163.4,0.00,23.4,25.7,"21:37:44",1
"18/09/07","21:50",0.0,25.9,85.8,1003.4,160.8,1.7,3.5,137.6,0.00,23.4,25.7,"21:41:52",1
"18/09/07","22:00",0.0,25.7,86.7,1003.4,152.2,0.8,1.7,164.9,0.00,23.4,25.6,"21:50:56",1
"18/09/07","22:10",0.0,25.5,87.0,1003.4,159.4,0.7,1.9,113.7,0.00,23.2,25.6,"22:03:36",1
"18/09/07","22:20",0.0,25.4,87.4,1003.1,175.8,0.7,1.6,210.6,0.00,23.2,25.5,"22:10:08",1
"18/09/07","22:30",1.0,25.4,88.0,1003.1,262.6,0.5,1.7,207.2,0.00,23.3,25.6,"22:20:08",1
"18/09/07","22:40",1.6,25.2,89.1,1003.4,329.8,0.5,1.0,347.6,0.00,23.3,25.7,"22:38:00",1
"18/09/07","22:50",1.6,25.0,90.2,1003.1,325.3,0.8,1.7,351.5,0.00,23.3,25.6,"22:45:12",1
"18/09/07","23:00",3.6,24.7,91.2,1003.4,330.5,0.2,1.0,305.6,0.00,23.2,25.6,"22:50:40",1
"18/09/07","23:10",1.4,24.6,91.8,1003.6,350.2,0.6,1.1,356.1,0.00,23.2,25.5,"23:07:44",1
"18/09/07","23:20",1.0,24.5,92.5,1003.8,23.6,0.2,0.9,357.4,0.00,23.2,25.2,"23:17:44",1
"18/09/07","23:30",4.2,24.4,92.8,1003.8,123.9,0.1,0.8,332.9,0.00,23.2,25.4,"23:29:52",1
"18/09/07","23:40",7.2,24.3,93.1,1003.8,337.2,0.7,1.3,345.0,0.00,23.2,25.3,"23:31:52",1
"18/09/07","23:50",3.6,24.0,93.3,1004.1,356.6,0.8,2.0,23.4,0.00,22.9,25.0,"23:41:12",1
"18/09/07","24:00",0.6,23.8,93.6,1003.6,345.9,0.8,1.6,355.9,0.00,22.7,25.1,"23:57:44",1
